OPS 4682 DEB, 38424

Orbit data source: Space-Track

OPS 4682 DEB, 38424 is space debris in LEO originally from a launch on Sat, 03 Apr 1965 UTC launched from the Air Force Western Test Range (AFWTR). Debris objects in space refer to the collection of defunct objects orbiting the Earth. Examples of debris include non-operational satellites, rocket bodies, and fragments generated from explosions, collisions, or faulty payload assembly.

Loading next visibility...
Identifier
38424, 1965-027ED
Orbit
LEO
Country
Flag of USUS
Related business
Manufacturer
Unknown
Mission
Spacecraft
Bus & Motor
Unknown
Mass
Unknown
Launch date (UTC)
1965-04-03 (61 years ago)
Launch vehicle
Unknown
Launch site
Air Force Western Test Range (AFWTR)
Object type
Payload
Rocket body
Debris
Shape & HBR
Unknown shape, 0.1 m
Radar Cross Section
Small (<0.1 m²)

Expand to show TLE details & history
Last TLE update: 3 days ago

TLE from 3 days ago
0 OPS 4682 DEB
1 38424U 65027ED  26033.15773801  .00000280  00000-0  85429-3 0  9998
2 38424  90.2694   4.0625 0026773 143.5420 216.7534 13.03955181294238
Epoch: 2026-02-02T03:47Z
TLE epoch observation values (Epoch: 2026-02-02T03:47:08.564Z)
Latitude
-0°
Longitude
174.91977°
Altitude
1,265.897 km
Speed
7.215 km/s
True Right ascension
00h 16m 15s
True Declination
0° 00' 00"
Sunlit
Object was in daylight at epoch
Visualization orbit readout
Latitude
Unknown
Longitude
Unknown
Altitude
Unknown
Speed
Unknown
Apparent Right ascension
Unknown
Apparent Declination
Unknown
Sunlit
N/A
Visualization observer readout
Local Sidereal Time
11:56:40
Azimuth
Unknown
Elevation
Unknown
Doppler factor
Unknown
Orbital elements
Apogee altitude
1,264.156 km
Perigee altitude
1,223.344 km
Semi-major axis
7,621.887 km
Eccentricity
0.00268
Inclination
90.2694°
RAAN
4.0625°
Arg. of periapsis
143.542°
True anomaly
216.57031°
Mean anomaly
216.7534°
Eccentric anomaly
216.66181°
Mean motion
3.26174 °/min
Orbital period
110.37 mins
BSTAR
0.00085429
Loading maneuver chart data...
Computing Atmospheric mass density...
Loading historical data...
Loading historical data...
Loading historical data...
Loading historical data...
Loading historical data...
Loading historical data...
Loading historical data...

Documentation

Showing up to 5 results
|